Location: Wanzleben
(52.0609°N, 11.4408°E)
Time: 07:07:12
(UTC+00:00)

Cosmos 2098 Rocket - Pass Details

Date: 18 September 2020
Orbit: 366 x 1185 km, 82.9° (Epoch: 22 October)

Event Time Altitude Azimuth Distance (km) Brightness Sun altitude
Rises 20:50:59 0° 348° (NNW) 4,082 8.1 -29.2°
Reaches altitude 10° 20:53:47 10° 347° (NNW) 3,083 7.4 -29.5°
Maximum altitude 21:01:03 72° 266° (W) 1,123 4.2 -30.2°
Enters shadow 21:01:46 66° 225° (SW) 1,145 4.2 -30.3°
